Weather reports worldwide

Advertisment
Newton Rigg, United Kingdom (99152): temperature & dewpoint: 15.10.2017 06:00:00 - 21.10.2017 06:00:00 (BST)Newton Rigg, United Kingdom (99152): temperature -20cm & temperature -100cm: 15.10.2017 06:00:00 - 21.10.2017 06:00:00 (BST)Newton Rigg, United Kingdom (99152): precipitation: 15.10.2017 06:00:00 - 21.10.2017 06:00:00 (BST)
Date & Time tt [°C] td [°C] tt -20cm [°C] tt -100cm [°C] rr [mm]
21.10.2017 06:00:00 - - - - -
21.10.2017 05:00:00 - - - - -
21.10.2017 04:00:00 - - - - -
21.10.2017 03:00:00 - - - - -
21.10.2017 02:00:00 - - - - -
21.10.2017 01:00:00 - - - - -
21.10.2017 00:00:00 - - - - -
20.10.2017 23:00:00 - - - - -
20.10.2017 22:00:00 - - - - -
20.10.2017 21:00:00 - - - - 0,0
20.10.2017 20:00:00 9,7 7,3 - - 0,0
20.10.2017 19:00:00 9,9 7,5 - - 0,0
20.10.2017 18:00:00 10,4 7,8 - - 0,0
20.10.2017 17:00:00 11,5 8,8 - - 0,0
20.10.2017 16:00:00 13,6 10,2 - - 0,0
20.10.2017 15:00:00 14,2 10,8 - - 0,0
20.10.2017 14:00:00 15,9 10,7 - - 0,0
20.10.2017 13:00:00 15,0 10,8 - - 0,0
20.10.2017 12:00:00 14,2 11,0 - - 0,0
20.10.2017 11:00:00 13,4 12,3 - - 0,0
20.10.2017 10:00:00 12,0 11,7 12,7 12,7 0,0
20.10.2017 09:00:00 11,1 11,1 - - 0,0
20.10.2017 08:00:00 11,1 11,0 - - 0,2
20.10.2017 07:00:00 11,1 11,0 - - 0,4
20.10.2017 06:00:00 11,0 11,0 - - 0,6
20.10.2017 05:00:00 11,1 11,0 - - 0,4
20.10.2017 04:00:00 11,3 11,2 - - 0,4
20.10.2017 03:00:00 11,1 11,0 - - 1,0
20.10.2017 02:00:00 10,9 10,7 - - 3,0
20.10.2017 01:00:00 10,9 10,7 - - 0,8
20.10.2017 00:00:00 11,1 10,6 - - 0,0
19.10.2017 23:00:00 11,8 10,9 - - 0,0
19.10.2017 22:00:00 11,1 10,8 - - 0,0
19.10.2017 21:00:00 11,2 10,7 - - 0,6
19.10.2017 20:00:00 11,5 11,1 - - 3,8
19.10.2017 19:00:00 11,3 11,0 - - 1,4
19.10.2017 18:00:00 11,5 11,0 - - 0,0
19.10.2017 17:00:00 - - - - 0,0
19.10.2017 16:00:00 - - - - 0,0
19.10.2017 15:00:00 13,4 10,3 - - 0,0
19.10.2017 14:00:00 13,7 10,4 - - 0,0
19.10.2017 13:00:00 12,7 10,2 - - 0,0
19.10.2017 12:00:00 11,6 9,6 - - 0,0
19.10.2017 11:00:00 11,2 9,3 - - 0,0
19.10.2017 10:00:00 10,7 9,1 12,7 12,7 0,0
19.10.2017 09:00:00 10,3 8,9 - - 0,0
19.10.2017 08:00:00 9,7 8,6 - - 0,0
19.10.2017 07:00:00 10,4 9,3 - - 0,0
19.10.2017 06:00:00 10,8 9,5 - - 0,0
19.10.2017 05:00:00 10,9 9,3 - - 0,0
19.10.2017 04:00:00 10,6 9,4 - - 0,0
19.10.2017 03:00:00 11,0 9,3 - - 0,0
19.10.2017 02:00:00 10,7 9,0 - - 0,0
19.10.2017 01:00:00 10,3 8,1 - - 0,0
19.10.2017 00:00:00 10,3 7,6 - - 0,0
18.10.2017 23:00:00 10,3 7,5 - - 0,0
18.10.2017 22:00:00 10,2 7,7 - - 0,0
18.10.2017 21:00:00 10,2 7,9 - - 0,0
18.10.2017 20:00:00 10,1 7,8 - - 0,0
18.10.2017 19:00:00 10,3 7,6 - - 0,0
18.10.2017 18:00:00 10,4 7,2 - - 0,0
18.10.2017 17:00:00 10,8 7,4 - - 0,0
18.10.2017 16:00:00 11,0 7,4 - - 0,0
18.10.2017 15:00:00 11,1 7,4 - - 0,0
18.10.2017 14:00:00 12,3 7,6 - - 0,0
18.10.2017 13:00:00 12,4 6,9 - - 0,0
18.10.2017 12:00:00 11,9 7,5 - - 0,0
18.10.2017 11:00:00 11,2 7,8 - - 0,0
18.10.2017 10:00:00 10,5 7,9 12,7 12,9 0,0
18.10.2017 09:00:00 8,6 8,4 - - 0,0
18.10.2017 08:00:00 7,4 7,1 - - 0,0
18.10.2017 07:00:00 7,5 7,3 - - 0,0
18.10.2017 06:00:00 7,6 7,3 - - 0,0
18.10.2017 05:00:00 7,5 7,3 - - 0,0
18.10.2017 04:00:00 7,4 7,2 - - 0,0
18.10.2017 03:00:00 7,5 7,3 - - 0,0
18.10.2017 02:00:00 7,5 7,1 - - 0,0
18.10.2017 01:00:00 7,6 7,3 - - 0,0
18.10.2017 00:00:00 7,7 6,9 - - 0,0
17.10.2017 23:00:00 8,8 8,2 - - 0,0
17.10.2017 22:00:00 9,0 8,0 - - 0,0
17.10.2017 21:00:00 9,6 8,9 - - 0,0
17.10.2017 20:00:00 8,5 7,2 - - 0,0
17.10.2017 19:00:00 9,9 8,3 - - 0,0
17.10.2017 18:00:00 10,1 8,4 - - 0,0
17.10.2017 17:00:00 10,4 8,7 - - 0,2
17.10.2017 16:00:00 10,5 8,7 - - 0,0
17.10.2017 15:00:00 10,4 8,3 - - 0,0
17.10.2017 14:00:00 10,5 9,2 - - 0,2
17.10.2017 13:00:00 10,3 8,3 - - 0,0
17.10.2017 12:00:00 10,8 7,2 - - 0,0
17.10.2017 11:00:00 10,6 7,0 - - 0,0
17.10.2017 10:00:00 10,3 6,8 13,0 12,9 0,0
17.10.2017 09:00:00 10,2 6,7 - - 0,0
17.10.2017 08:00:00 10,2 7,0 - - 0,0
17.10.2017 07:00:00 10,1 7,1 - - 0,0
17.10.2017 06:00:00 10,5 6,8 - - 0,0
17.10.2017 05:00:00 10,4 7,1 - - 0,0
17.10.2017 04:00:00 11,2 6,4 - - 0,0
17.10.2017 03:00:00 11,3 7,9 - - 0,4
17.10.2017 02:00:00 11,2 9,0 - - 0,4
17.10.2017 01:00:00 11,5 9,3 - - 0,4
17.10.2017 00:00:00 11,0 9,7 - - 1,0
16.10.2017 23:00:00 11,0 9,6 - - 0,6
16.10.2017 22:00:00 11,0 8,9 - - 0,4
16.10.2017 21:00:00 11,7 8,9 - - 0,0
16.10.2017 20:00:00 11,8 8,4 - - 0,0
16.10.2017 19:00:00 14,0 7,3 - - 0,0
16.10.2017 18:00:00 14,5 7,4 - - 0,0
16.10.2017 17:00:00 15,9 7,4 - - 0,2
16.10.2017 16:00:00 18,3 11,4 - - 0,0
16.10.2017 15:00:00 17,7 14,1 - - 0,0
16.10.2017 14:00:00 15,2 13,2 - - 0,0
16.10.2017 13:00:00 13,7 12,6 - - 0,0
16.10.2017 12:00:00 13,1 11,9 - - 0,0
16.10.2017 11:00:00 12,5 11,8 - - 0,8
16.10.2017 10:00:00 12,3 11,5 13,2 12,9 0,6
16.10.2017 09:00:00 12,7 11,2 - - 0,0
16.10.2017 08:00:00 12,3 11,1 - - 0,0
16.10.2017 07:00:00 11,9 11,0 - - 0,0
16.10.2017 06:00:00 12,1 11,0 - - 0,0
16.10.2017 05:00:00 12,5 11,1 - - 0,0
16.10.2017 04:00:00 12,7 11,2 - - 0,0
16.10.2017 03:00:00 12,2 10,7 - - 0,0
16.10.2017 02:00:00 12,7 11,2 - - 0,0
16.10.2017 01:00:00 12,9 11,4 - - 0,0
16.10.2017 00:00:00 12,9 11,5 - - 0,0
15.10.2017 23:00:00 12,8 11,7 - - 0,0
15.10.2017 22:00:00 13,4 11,6 - - 0,0
15.10.2017 21:00:00 13,4 11,6 - - 0,0
15.10.2017 20:00:00 13,3 11,7 - - 0,0
15.10.2017 19:00:00 13,6 11,8 - - 0,0
15.10.2017 18:00:00 13,9 11,9 - - 0,0
15.10.2017 17:00:00 13,8 12,2 - - 0,0
15.10.2017 16:00:00 13,9 12,0 - - 0,0
15.10.2017 15:00:00 13,9 11,7 - - 0,0
15.10.2017 14:00:00 13,8 11,3 - - 0,0
15.10.2017 13:00:00 14,0 11,1 - - 0,0
15.10.2017 12:00:00 14,1 10,8 - - 0,0
15.10.2017 11:00:00 14,1 11,4 - - 0,0
15.10.2017 10:00:00 13,9 11,4 13,2 12,7 0,0
15.10.2017 09:00:00 13,9 11,1 - - 0,0
15.10.2017 08:00:00 13,7 10,9 - - 0,0
15.10.2017 07:00:00 13,7 10,8 - - 0,0
15.10.2017 06:00:00 13,7 11,1 - - 0,0

tt = temperature
td = dewpoint
tt -20cm = temperature -20cm
tt -100cm = temperature -100cm
rr = precipitation

Next stations